RH
35 31 31 31 28 24 22 23 24 25 26 23 25 25 22 23 25 24 29 33 28 25 21 15 14 16 15 16 15 14 15 17 20 25 32 43 56 69 84 91 91 91 93 94 97 98 97 95 90 85 80 74 70 66 64 66 66 65 63 59 55 54 53 55 57 57 57 54 50 44 33 22 14 9 6 4 2 2 2 2 2 2 2 3 3 3 3
35 32 27 29 35 34 27 25 23 23 24 24 28 28 24 26 30 27 31 35 30 27 24 17 15 17 17 17 17 16 17 16 18 23 27 35 51 70 89 99 99 99 100 100 99 97 93 91 88 84 77 70 67 67 68 69 66 62 59 55 54 55 57 60 59 56 53 47 37 25 14 8 5 3 3 2 2 2 2 2 3 3 3 3 3 3 4
34 33 27 28 36 40 34 30 28 28 28 26 27 29 28 31 35 32 32 35 32 27 22 19 19 20 18 17 16 16 18 19 20 23 26 32 46 66 87 98 100 99 99 97 94 92 90 88 86 80 72 69 70 71 70 67 62 59 56 56 58 60 61 59 55 50 42 30 18 9 4 3 2 2 2 2 2 3 3 3 3 3 3 4 4 4 4
31 34 36 35 33 36 37 36 38 36 32 31 32 33 32 32 34 34 32 32 32 26 20 18 19 19 19 19 18 17 18 20 22 24 26 31 40 57 77 91 95 96 96 94 93 91 86 82 79 74 70 72 74 72 68 63 59 58 58 61 63 62 59 54 48 39 25 12 5 3 2 2 2 2 3 3 3 3 3 4 3 3 4 4 4 5 5
29 35 40 39 35 35 35 36 39 36 30 32 36 35 28 24 28 35 34 29 29 26 19 18 20 19 19 18 17 18 18 18 20 21 25 31 39 53 70 83 90 94 96 95 92 86 77 72 72 71 73 76 74 69 64 60 59 61 63 64 63 59 54 46 35 21 9 3 3 2 2 2 2 3 3 3 4 4 4 4 4 4 5 4 5 5 5
29 39 40 37 34 34 34 33 31 30 29 29 30 28 23 21 25 31 30 26 26 24 19 18 20 19 19 19 18 18 17 18 19 19 22 30 39 54 72 86 94 96 95 92 86 78 71 69 70 72 74 74 70 65 62 61 63 65 65 63 59 52 43 31 18 7 2 2 2 2 3 3 3 4 4 4 4 4 4 5 4 5 5 5 6 6 6
30 44 41 34 34 37 38 35 27 26 27 26 25 25 23 22 23 23 22 22 22 21 18 19 21 20 21 21 20 19 18 18 18 18 21 27 35 53 77 93 97 96 94 90 82 75 69 68 71 74 74 70 66 64 64 65 67 67 63 57 49 39 28 14 5 3 2 2 2 2 3 3 4 4 4 4 5 5 5 5 5 6 6 6 6 6 6
33 44 36 30 40 44 38 31 26 26 27 26 25 24 22 21 21 21 21 21 20 19 20 22 22 21 22 22 21 20 19 18 17 18 23 28 36 57 83 93 92 93 94 89 80 72 68 70 75 76 72 68 66 65 67 68 67 63 55 47 36 24 13 5 2 3 2 2 3 3 4 4 4 5 5 5 5 5 6 6 6 6 6 7 7 7 7
38 38 29 28 41 46 37 28 26 27 28 26 25 25 25 23 21 21 21 20 21 21 21 22 22 21 22 22 21 20 18 18 19 20 27 39 52 70 87 93 93 95 93 84 76 73 73 76 78 75 70 68 68 68 70 68 63 55 45 34 21 11 5 3 3 2 3 3 4 4 4 5 5 5 5 5 5 6 6 6 7 7 7 7 8 7 8
39 31 28 32 36 37 34 28 26 28 30 28 26 28 31 27 21 21 22 20 21 22 22 22 22 21 21 21 21 20 18 19 20 21 33 57 77 85 87 90 94 96 91 80 76 78 80 78 76 72 69 69 70 71 69 64 56 46 33 20 10 4 3 3 2 3 3 4 4 5 5 5 5 6 6 6 6 6 7 7 7 8 8 8 8 8 8
40 33 31 33 31 33 36 33 31 33 33 31 31 33 34 29 22 20 21 21 21 22 22 22 21 20 21 20 20 20 19 19 21 22 33 59 83 91 91 92 95 94 87 79 78 82 81 77 73 72 71 71 72 70 65 58 48 33 19 9 4 3 3 3 3 4 4 5 5 5 5 5 6 6 6 7 7 7 7 8 8 8 9 9 9 9 9
41 38 30 27 29 35 38 34 32 33 34 38 42 38 33 30 26 23 22 22 22 22 21 22 21 21 21 21 20 20 21 22 24 24 27 42 63 79 91 98 99 94 84 78 80 82 79 75 73 72 73 73 71 67 60 50 35 19 8 4 3 3 3 3 4 4 5 5 6 5 6 6 6 7 7 7 8 8 8 9 9 9 10 10 10 10 10
40 42 34 26 29 36 37 31 29 32 37 44 44 36 31 31 29 27 27 25 24 24 24 23 23 22 22 22 21 23 25 25 24 23 28 40 57 75 91 99 100 94 84 81 82 79 75 74 74 74 75 72 68 64 53 37 21 9 4 3 3 3 3 4 5 5 5 6 6 6 6 7 7 7 8 8 8 9 9 9 10 10 10 11 11 11 11
36 39 37 30 29 35 36 33 31 32 37 44 42 34 31 32 29 28 30 29 28 28 28 27 27 26 25 25 24 26 28 28 27 28 35 46 62 79 93 99 97 91 84 82 81 77 75 75 76 76 74 69 65 59 43 23 10 4 3 3 3 3 4 5 5 6 6 6 7 7 7 7 8 8 8 9 9 10 10 10 11 11 11 12 12 12 12
39 41 41 35 35 37 34 32 33 32 34 39 39 36 33 30 28 28 29 28 28 30 30 29 28 27 27 28 28 30 31 33 37 42 44 44 50 66 83 92 93 89 85 81 78 76 76 77 78 77 73 68 62 51 30 12 5 4 3 3 4 4 5 6 6 6 7 7 7 7 8 8 9 9 9 10 10 10 11 12 12 12 13 12 13 13 13
41 42 39 36 39 40 34 31 31 29 30 33 33 33 33 31 30 30 29 27 28 28 28 29 29 29 30 30 30 33 37 39 43 49 51 46 47 62 80 91 92 89 85 81 77 77 78 79 79 77 72 67 56 37 17 7 4 3 4 4 4 5 5 6 7 7 7 7 8 8 9 9 9 10 10 11 11 12 12 13 13 14 14 13 14 14 13
43 36 37 40 41 38 33 32 30 27 29 32 30 29 31 32 32 31 29 28 28 27 26 27 27 29 31 32 33 37 43 45 47 53 58 56 59 72 84 91 93 90 84 80 78 77 80 81 80 77 71 61 44 23 8 4 4 3 4 4 5 6 6 6 7 7 7 8 8 9 10 10 10 11 11 12 13 13 14 14 14 15 14 14 15 14 14
46 36 39 43 40 35 33 34 33 29 28 31 32 31 32 32 32 32 30 29 29 28 27 27 26 27 28 31 36 42 48 50 53 61 66 67 73 84 90 93 94 89 82 80 80 80 84 84 80 75 66 49 28 11 4 4 4 4 5 5 6 7 7 7 8 8 8 9 9 10 11 11 11 12 12 13 14 14 15 15 15 16 16 15 15 15 15
52 49 48 44 41 41 39 38 37 34 31 32 33 34 35 34 33 33 31 30 30 29 29 28 28 28 28 30 38 47 51 52 56 67 75 78 83 90 94 96 93 85 80 81 83 85 88 85 78 72 59 36 16 5 3 4 4 4 5 6 7 7 8 8 9 9 9 10 10 11 11 11 12 13 13 14 15 15 16 17 16 17 17 16 16 16 16
59 61 58 50 46 46 44 41 40 38 36 37 37 36 36 36 34 34 33 32 32 31 30 31 32 33 33 34 41 51 53 53 60 73 83 87 89 94 97 96 90 84 82 82 83 89 91 85 78 70 50 24 8 3 4 4 4 5 6 6 7 8 8 9 9 9 10 11 11 12 12 13 13 14 14 15 16 16 17 17 17 17 17 17 17 16 16
65 65 61 55 52 50 46 44 44 42 41 41 41 39 39 38 37 38 36 35 35 34 34 36 39 42 42 42 46 54 57 56 64 79 90 94 94 95 95 92 89 86 84 83 88 93 90 82 77 65 40 15 4 3 4 5 5 5 6 7 8 8 9 9 10 10 11 12 12 13 13 14 14 15 16 16 17 17 18 18 18 18 18 18 17 17 17
71 69 65 60 60 62 58 49 46 46 45 44 43 43 44 44 43 42 41 39 40 39 41 45 49 52 54 53 53 57 60 61 69 84 95 98 96 95 93 90 89 87 86 89 94 92 86 82 75 55 27 7 3 5 6 6 6 6 6 7 8 9 9 10 11 11 12 12 13 13 14 15 16 16 17 17 18 18 19 19 19 19 19 19 18 18 18
75 71 68 62 60 64 63 54 51 51 49 47 47 47 46 46 45 44 44 45 47 49 51 56 59 59 59 59 59 60 62 69 81 93 96 93 92 94 94 92 89 88 90 94 93 88 85 80 60 31 11 7 11 12 9 6 6 6 7 8 9 9 10 10 11 12 12 13 14 14 15 16 16 17 18 18 19 19 19 19 20 20 20 20 19 19 18
70 69 69 64 61 62 59 55 54 53 50 49 49 47 46 47 48 48 49 52 55 57 59 62 65 64 61 61 64 64 65 75 89 98 98 94 93 95 96 93 89 88 90 92 91 88 83 71 50 32 27 26 21 13 7 5 6 7 8 9 9 10 10 11 11 12 13 13 14 15 16 16 17 18 19 20 20 20 20 20 20 21 21 21 20 20 19
69 68 68 66 66 65 62 59 57 55 53 52 51 51 52 53 54 54 54 56 58 60 61 63 66 66 62 62 67 72 74 80 90 95 96 96 97 99 98 94 88 87 90 92 89 85 80 75 66 54 40 26 13 7 5 5 6 8 8 9 10 10 10 11 11 12 13 14 14 15 16 17 18 19 20 21 21 21 21 21 21 21 21 22 21 21 20
62 63 62 63 65 65 64 64 62 60 59 58 56 57 58 57 57 57 57 60 63 64 64 65 66 67 64 63 69 78 81 84 92 96 96 97 99 99 99 94 88 90 94 91 86 85 86 80 62 38 19 9 6 5 5 5 7 8 9 9 10 10 10 11 12 12 13 14 15 15 16 18 19 20 21 21 22 22 22 22 22 21 21 22 22 22 21
51 52 53 55 56 56 56 59 59 59 60 59 57 58 58 57 59 61 62 64 66 66 67 68 66 67 68 67 72 82 86 89 96 98 97 98 100 100 99 97 94 95 94 88 85 89 82 58 30 11 5 6 6 4 5 6 8 8 9 10 10 11 11 11 11 12 13 14 15 16 17 18 19 20 21 22 23 24 23 23 23 22 22 22 23 23 23
47 43 42 44 47 49 48 48 49 51 53 54 53 52 52 53 56 61 64 67 67 65 67 68 65 68 74 73 73 83 93 97 100 99 97 97 99 99 100 100 98 95 91 87 89 84 59 26 7 5 7 6 5 5 6 7 8 8 9 10 10 10 10 11 12 13 13 14 15 16 17 18 19 21 22 23 24 24 24 24 25 24 24 23 23 23 23
45 39 34 32 36 41 43 43 42 41 41 44 44 42 41 41 44 49 55 59 61 63 68 68 64 67 78 82 80 84 92 98 99 99 98 97 98 100 100 100 99 96 91 90 88 70 36 9 3 7 6 5 6 7 6 7 8 9 10 10 11 11 10 11 12 13 13 14 15 16 17 18 19 21 22 24 24 25 25 25 25 25 25 25 24 24 24
42 37 32 28 26 29 33 37 39 37 33 33 35 35 34 32 32 35 40 43 48 55 63 68 66 66 78 90 92 90 94 98 98 98 100 99 99 100 100 100 99 96 93 92 81 53 20 4 4 6 5 6 7 6 6 8 9 9 10 11 11 10 11 11 12 13 14 15 15 16 17 18 20 21 23 24 25 26 26 26 26 26 26 26 26 25 25
31 28 28 26 24 24 24 27 32 34 29 26 27 29 29 27 25 26 30 34 38 45 56 67 72 73 80 93 98 97 98 99 99 98 100 100 99 99 100 100 99 96 92 87 71 39 12 5 6 6 6 7 7 7 8 8 8 9 10 11 10 10 11 12 12 13 14 15 15 16 17 18 20 22 23 24 25 26 27 27 27 27 27 27 27 27 27
24 23 23 23 23 23 22 22 28 30 26 22 23 24 24 23 21 22 26 32 40 50 62 73 79 81 86 93 97 97 98 99 99 99 99 98 99 100 100 99 100 99 94 86 70 44 20 10 7 6 6 7 7 7 8 8 8 10 10 10 11 12 11 11 13 14 14 15 16 16 17 19 20 21 23 24 26 27 27 28 28 28 28 28 28 28 28
25 25 25 25 23 22 21 22 26 27 24 20 21 21 19 19 22 26 33 43 53 64 74 80 84 88 93 96 96 95 96 98 100 100 97 97 99 100 99 98 100 100 96 88 74 50 26 11 7 6 6 7 8 8 8 8 9 10 10 10 11 12 11 12 13 14 14 15 15 16 17 18 19 21 22 24 25 26 27 28 29 29 29 29 29 29 29
26 25 24 23 20 19 19 20 22 23 21 19 19 19 18 19 23 30 44 60 71 76 81 87 91 95 98 98 95 95 96 99 101 99 96 97 100 99 97 97 98 96 91 81 62 36 15 7 6 6 5 7 7 8 8 9 9 9 10 11 11 11 12 13 13 13 14 15 15 16 17 18 19 20 22 23 25 26 27 29 30 30 30 30 30 30 30
22 21 20 19 18 18 20 20 20 20 19 18 19 20 18 18 22 32 49 69 81 84 88 94 98 100 99 97 96 97 97 98 100 98 94 95 98 98 95 93 91 86 78 62 38 16 6 6 6 5 6 7 8 8 8 9 9 10 10 11 11 12 12 13 13 14 14 14 15 16 17 17 18 20 21 22 24 26 27 28 30 31 31 32 31 31 31
21 20 20 20 20 20 20 20 19 19 18 18 20 22 21 20 26 36 51 67 81 90 95 98 100 99 97 95 97 99 96 94 95 96 95 95 97 95 91 86 82 74 60 39 17 6 5 6 6 5 6 7 7 7 8 8 9 10 10 10 11 12 12 13 13 13 14 14 15 16 17 17 18 19 20 21 23 25 26 28 29 30 32 32 33 32 32
23 23 23 22 22 21 20 19 19 19 20 20 22 24 24 25 31 39 48 62 77 89 95 97 99 100 98 96 98 100 98 94 94 95 96 96 95 91 85 79 73 64 48 28 11 5 5 6 5 6 7 6 6 7 8 8 9 9 10 10 11 12 12 13 13 13 14 14 15 15 16 17 18 19 20 20 22 23 25 27 28 30 31 32 33 34 34
25 26 26 27 26 24 23 22 21 21 22 24 25 25 25 29 35 40 46 55 68 81 91 96 99 100 100 99 100 100 99 97 97 97 96 94 91 87 80 72 66 59 46 30 16 7 4 5 5 6 6 6 6 7 7 8 8 9 9 10 11 11 12 12 13 13 14 14 15 16 17 17 18 19 20 20 21 22 24 26 27 29 30 32 33 34 34
25 26 29 32 31 28 26 26 26 26 26 27 27 26 26 30 36 41 45 49 55 67 82 91 94 96 100 100 98 97 96 93 91 92 93 90 86 81 74 67 60 51 39 25 15 8 4 4 5 6 5 6 6 6 7 8 8 8 9 10 10 10 11 12 12 13 14 14 14 15 16 16 18 19 19 20 20 21 22 24 26 27 29 31 32 33 34
26 27 29 32 33 32 31 30 30 30 30 29 29 27 27 31 33 36 41 46 49 57 70 80 84 91 97 98 95 95 93 88 86 89 91 87 82 78 76 71 62 48 33 20 12 8 5 4 5 5 5 6 6 6 6 7 8 8 9 9 10 10 11 11 12 13 13 13 14 15 15 16 17 18 18 19 20 21 21 23 24 26 27 29 30 32 34
26 27 28 31 32 33 33 32 33 33 32 31 30 29 30 32 31 32 38 45 49 55 65 75 82 89 94 94 95 95 90 84 84 89 90 86 82 81 80 76 67 56 42 28 15 7 5 5 5 5 5 5 6 6 7 7 7 8 8 8 9 10 10 10 11 11 12 12 13 13 14 15 16 17 18 18 19 20 21 22 23 24 26 27 28 30 32
21 24 27 29 31 32 32 32 34 35 34 33 32 31 31 34 36 38 43 48 52 55 62 73 84 93 97 97 96 94 90 87 88 89 88 85 83 82 81 78 72 64 53 36 19 8 5 5 4 5 5 5 5 6 7 6 7 8 8 8 9 9 9 9 9 9 10 10 11 11 13 14 16 17 18 18 19 20 21 22 23 24 25 26 27 28 30
12 16 19 22 26 30 31 31 32 33 33 33 34 33 33 35 38 42 47 50 53 56 62 70 81 89 93 92 88 84 84 87 90 89 87 85 85 85 85 81 74 66 56 41 23 10 6 4 4 5 5 5 5 6 6 7 7 8 8 8 9 9 9 9 9 8 9 10 10 11 12 13 15 17 18 19 19 20 20 21 22 23 24 26 27 28 29
4 6 8 10 14 18 22 26 30 33 34 35 36 37 37 38 39 42 47 52 56 60 66 74 80 82 82 83 83 85 88 92 94 93 93 91 87 87 88 83 72 60 51 40 25 11 5 4 5 5 4 5 6 6 6 7 7 7 7 8 8 8 8 8 8 8 9 11 12 13 13 14 16 17 18 18 19 20 21 22 23 24 25 26 27 28 29
4 4 3 4 5 6 9 14 20 26 29 32 35 38 41 42 43 44 48 54 59 66 73 79 83 82 80 79 81 86 93 97 96 95 95 92 87 86 87 84 74 62 52 41 27 12 4 3 5 5 5 5 6 6 6 7 7 7 7 8 8 8 8 8 8 8 10 11 13 15 15 16 16 17 17 17 18 18 19 21 23 25 26 27 28 29 31
3 3 3 4 4 3 3 5 8 12 15 18 23 29 33 37 41 45 48 52 59 69 77 83 88 90 90 88 87 90 95 98 97 95 94 92 89 86 83 77 68 61 55 45 28 11 3 3 5 5 5 6 6 6 6 6 6 6 7 7 7 7 8 7 7 8 9 10 12 14 16 17 17 17 17 17 18 19 22 24 25 26 27 28 30 31 32
7 5 4 3 4 4 4 3 3 4 5 6 10 16 20 24 29 35 40 45 51 59 67 73 77 81 84 87 90 91 93 95 96 96 95 94 90 82 72 62 56 56 57 49 30 11 3 3 4 4 5 6 5 6 6 6 6 7 7 7 7 8 7 8 8 8 9 10 11 12 14 15 16 16 16 17 19 22 23 24 26 28 30 32 33 34 35
18 14 11 7 4 4 4 4 4 3 3 4 6 9 14 18 22 25 27 31 35 39 42 46 52 59 66 72 77 80 83 85 86 87 88 88 86 78 68 60 58 61 61 50 29 10 3 3 4 4 5 5 5 5 6 5 6 7 7 7 7 8 7 8 9 9 10 11 11 12 13 14 15 15 18 20 22 24 27 30 33 37 40 43 46 49 51
25 22 20 18 13 7 4 4 4 4 4 4 4 6 10 14 18 19 20 22 24 25 25 25 29 39 51 59 64 68 72 75 78 81 82 82 81 79 74 69 67 66 60 43 21 7 3 4 5 5 6 5 5 6 6 5 6 7 7 7 7 8 7 8 9 9 10 12 13 13 14 15 16 17 19 21 24 28 32 36 42 50 58 65 70 72 72
30 27 25 25 23 18 12 7 5 5 5 5 5 5 6 8 11 13 15 17 18 20 21 19 17 22 31 41 47 52 56 61 67 73 76 75 74 75 75 73 70 63 49 29 12 4 4 5 5 5 6 6 6 6 6 6 6 7 7 7 7 7 8 9 10 11 12 13 14 15 15 15 17 20 23 26 28 30 35 45 60 74 82 85 85 82 80
35 33 30 29 29 28 24 18 12 8 6 6 5 5 5 6 7 9 12 15 15 16 17 18 16 16 20 26 31 34 37 42 49 53 55 54 54 56 57 58 56 48 32 15 5 3 4 6 6 6 6 7 7 7 7 7 7 7 8 8 8 9 9 10 11 12 13 14 15 16 17 19 22 26 29 31 31 33 42 60 78 86 86 86 88 87 83
38 37 37 36 34 33 32 29 25 19 14 10 8 7 6 6 6 7 9 11 12 12 13 15 15 16 17 20 23 24 26 29 32 34 33 32 32 34 34 34 32 26 16 7 4 4 5 5 6 7 7 7 7 7 7 7 7 7 8 8 8 8 10 10 11 12 13 14 16 19 23 28 31 34 36 37 39 42 51 64 74 76 77 85 93 92 84
Wind_Speed
3 6 9 12 15 18 20 22 24 25 25 27 28 27 23 18 16 12 9 12 15 15 15 15 15 15 16 19 21 21 20 19 18 18 20 23 25 26 28 29 30 29 29 31 33 33 32 29 26 25 24 22 20 19 17 15 15 14 13 11 10 9 8 8 7 7 7 7 7 7 7 7 6 7 7 7 7 6 7 7 8 10 11 13 15 16 18
8 8 10 10 10 11 16 19 22 23 25 27 28 28 26 22 19 15 10 9 11 13 14 14 15 16 17 16 17 18 20 21 21 21 21 23 25 27 29 32 33 33 33 33 33 32 30 27 25 24 22 20 19 18 16 15 14 13 12 10 9 9 8 7 7 6 6 6 6 5 5 5 5 5 4 4 4 5 6 7 9 11 12 14 16 17 19
11 13 10 8 7 7 11 15 18 20 23 25 26 26 26 24 22 20 17 14 13 14 14 13 14 15 17 18 17 17 18 20 21 22 23 24 26 28 31 32 34 35 35 34 32 29 27 25 24 23 21 20 18 16 15 14 13 12 11 10 9 8 7 7 6 6 5 5 4 3 3 3 2 2 1 2 3 5 7 8 10 12 13 15 16 17 19
12 15 12 8 7 7 9 13 15 18 23 24 24 25 27 27 24 22 23 20 17 18 18 17 16 16 16 17 17 17 17 17 19 21 23 24 26 29 30 32 34 34 32 30 27 25 24 23 23 22 21 19 17 16 15 14 13 12 10 9 8 8 7 7 6 5 5 4 3 2 2 1 1 1 1 3 5 6 8 9 11 13 14 15 16 17 18
12 14 13 10 9 8 11 15 17 18 20 22 23 27 30 29 25 23 24 22 19 20 21 19 17 16 14 13 14 14 15 16 17 19 21 23 25 27 29 30 30 30 28 26 25 23 22 22 22 22 20 19 18 16 15 14 12 11 9 9 8 8 7 7 6 5 5 4 3 2 2 2 1 1 2 4 6 7 9 10 12 13 14 15 16 17 18
12 12 11 10 10 9 9 13 17 18 19 20 24 28 29 27 26 26 24 21 20 21 20 18 17 16 14 14 15 15 15 15 17 18 20 22 23 25 27 28 28 28 27 26 24 22 22 23 23 22 20 19 17 16 14 13 11 11 10 9 9 8 8 7 6 6 5 4 3 3 3 2 1 2 3 5 6 8 9 11 12 13 14 15 16 17 18
12 10 11 10 10 10 8 8 12 16 19 22 24 26 26 25 26 26 23 21 21 19 17 18 19 19 18 18 18 18 17 16 17 18 19 21 22 24 26 28 29 27 25 23 22 21 22 23 22 21 20 18 17 15 14 13 12 11 10 10 9 9 8 8 8 7 6 5 5 4 3 2 1 2 4 5 7 9 10 11 12 12 13 15 16 17 18
11 10 14 11 6 6 9 10 11 14 17 21 24 26 27 25 23 23 22 22 22 20 19 20 21 21 20 20 20 19 19 19 19 19 20 21 22 25 27 27 26 24 21 20 20 21 22 22 21 21 19 17 16 15 14 13 12 11 11 11 10 10 10 9 9 7 7 6 6 5 3 2 2 3 4 6 7 9 10 11 12 12 13 15 16 17 18
12 12 15 14 7 6 11 14 14 13 15 19 22 23 24 24 23 21 22 23 23 23 23 23 22 21 21 22 21 21 22 22 22 22 20 18 19 22 24 23 21 20 20 20 20 21 22 22 22 21 19 18 17 15 14 13 12 12 12 12 11 11 11 10 9 8 8 7 6 4 3 2 2 4 5 7 8 9 10 10 11 12 14 15 16 17 18
16 15 13 12 10 9 12 14 14 12 13 16 18 18 18 21 22 21 21 22 23 23 24 23 23 23 23 22 21 21 23 25 25 25 22 18 18 22 24 24 23 23 22 22 22 23 22 22 22 20 19 18 16 15 13 12 13 13 13 13 12 12 12 10 10 9 9 7 5 3 2 2 3 4 6 7 8 9 9 10 11 13 14 15 16 17 18
18 18 14 12 10 10 11 12 11 10 10 11 13 13 14 17 19 20 20 21 21 21 22 23 23 24 23 21 19 20 23 25 26 26 25 23 24 26 25 23 23 23 23 23 24 24 24 23 21 20 19 17 15 14 13 13 14 14 14 14 14 13 12 11 11 10 8 6 4 3 2 2 3 5 6 7 8 8 9 10 12 13 14 16 17 18 19
17 19 18 15 13 11 12 13 12 10 9 9 9 9 9 12 14 15 16 18 18 19 21 22 22 22 21 19 19 20 22 24 27 28 27 28 29 28 26 24 24 23 24 24 25 25 24 22 21 20 18 16 15 14 14 15 16 15 15 15 15 14 13 12 11 9 7 5 3 2 1 3 4 5 6 6 7 8 9 11 12 14 15 16 17 18 19
17 18 18 17 15 14 14 15 14 12 10 11 11 9 7 8 10 11 12 15 17 18 19 19 19 19 18 18 17 18 19 23 27 29 29 29 28 27 27 28 27 25 23 24 24 24 23 22 21 19 17 15 15 15 16 17 17 17 17 17 16 15 14 13 10 8 6 4 2 1 1 3 4 5 6 6 7 8 9 11 13 14 15 16 17 18 20
17 17 18 17 15 16 16 15 15 14 13 11 11 10 9 8 9 11 12 14 16 17 17 17 17 17 17 16 16 17 18 20 24 28 29 28 27 27 28 28 26 23 22 24 25 25 24 22 20 18 16 15 16 17 18 18 18 18 18 18 17 16 14 12 9 7 5 4 2 0 2 3 4 5 5 6 7 9 10 12 13 14 16 16 17 19 20
16 15 16 14 11 13 18 19 17 16 15 12 11 12 13 11 11 12 13 13 14 15 16 17 16 16 16 16 17 19 19 18 20 25 28 30 31 31 31 29 26 23 22 24 25 24 23 22 19 17 17 16 17 18 19 19 19 19 19 18 17 16 14 11 9 7 5 3 2 1 2 3 4 4 5 6 8 10 11 13 14 15 16 17 18 19 20
17 15 15 15 12 11 15 21 23 21 18 16 15 15 16 14 12 12 12 12 13 14 15 16 17 17 18 19 20 21 20 19 20 24 29 32 32 32 31 29 25 22 21 23 25 25 23 21 19 18 18 18 19 20 19 19 20 20 19 19 18 15 13 11 9 7 5 4 3 2 2 2 3 4 6 7 9 11 12 13 14 15 16 17 18 19 20
21 19 15 16 18 16 14 17 21 22 20 17 17 17 17 15 13 12 12 12 12 14 15 16 17 19 20 22 23 22 21 20 22 25 30 32 31 31 30 28 24 23 23 24 25 25 24 22 20 20 19 20 20 20 20 20 20 20 20 19 17 15 12 10 9 7 6 5 3 2 2 2 3 4 6 8 9 11 12 13 14 15 16 16 17 18 19
20 23 20 19 21 21 19 18 18 21 22 20 19 19 18 16 14 14 14 13 13 13 14 16 18 20 22 24 25 22 20 21 23 27 31 33 32 32 31 28 26 25 25 26 26 26 24 23 22 21 21 22 21 20 20 21 21 20 20 18 16 14 12 11 10 8 7 5 4 3 2 2 3 5 6 8 9 11 12 13 14 15 15 16 17 18 19
16 18 21 23 22 20 22 22 21 22 24 23 21 20 19 17 16 15 15 14 15 15 16 18 20 22 23 25 25 22 21 23 25 29 34 35 34 34 31 28 26 26 27 28 28 26 24 23 23 22 23 23 22 22 22 22 22 21 20 18 16 14 13 12 10 9 7 6 4 3 2 2 3 4 6 7 8 10 11 12 13 14 15 16 17 18 19
17 14 17 21 21 20 21 21 20 21 22 22 21 20 18 18 17 16 16 16 17 18 19 20 21 22 24 26 25 23 23 25 27 31 36 36 35 34 31 27 25 26 27 28 27 25 24 23 23 23 23 23 23 24 23 22 22 21 19 17 16 14 13 12 11 9 8 6 4 3 2 2 3 4 5 6 8 9 10 12 13 14 15 16 17 18 19
18 18 18 18 18 18 20 20 19 18 19 18 18 18 18 18 18 18 18 18 19 20 21 21 22 22 23 25 25 24 25 27 29 34 37 37 35 32 30 27 26 26 27 27 26 25 25 23 23 24 24 23 24 25 24 22 21 21 19 17 16 15 14 13 11 10 8 6 4 3 1 1 2 4 5 6 7 9 10 11 12 13 14 15 16 18 19
14 17 20 20 17 15 18 21 21 20 20 20 20 19 19 19 19 19 20 20 21 21 22 22 22 22 23 24 24 25 26 29 32 36 38 37 35 32 29 28 27 27 27 26 26 27 26 24 24 24 23 24 25 25 24 22 22 20 19 17 16 16 15 14 12 10 8 6 5 3 1 0 2 3 4 5 7 8 9 11 12 13 14 15 16 17 18
13 16 20 22 21 20 22 23 22 22 23 23 22 22 21 21 21 22 22 22 22 21 21 21 21 22 21 21 22 24 27 29 33 37 39 37 34 32 31 30 29 29 28 28 28 28 27 25 25 24 24 24 24 24 24 24 22 21 19 18 17 16 16 14 12 10 8 7 5 3 2 0 1 3 4 5 7 8 9 10 11 13 14 15 16 17 18
14 15 15 16 19 22 24 24 24 24 24 24 24 24 24 24 24 24 23 23 22 21 20 20 20 21 21 19 19 23 27 31 36 39 37 34 33 33 33 31 29 30 30 30 29 28 27 27 27 27 26 25 25 24 25 25 23 21 20 19 18 17 16 15 13 11 9 7 5 4 2 1 2 3 4 5 6 7 8 10 11 12 13 14 16 17 18
12 12 12 12 14 17 19 20 22 23 23 23 23 24 24 24 24 24 23 22 22 22 22 20 20 21 22 20 20 23 26 29 35 39 37 35 35 34 32 29 29 30 31 30 28 27 27 27 27 27 27 26 25 25 26 25 23 22 21 20 19 18 17 15 13 11 9 7 6 5 3 2 2 3 4 5 6 7 8 9 10 12 13 14 15 16 18
11 11 11 11 12 13 14 15 16 17 18 19 20 20 22 23 23 23 22 22 22 22 23 22 20 21 22 22 23 25 26 27 32 38 39 37 35 33 30 28 29 30 30 28 26 26 26 26 26 26 26 25 26 26 26 25 23 22 21 20 19 19 17 15 13 11 10 8 7 6 4 4 3 3 4 5 6 7 8 9 10 11 12 13 15 16 17
10 10 10 11 11 11 11 12 13 13 14 15 16 17 19 20 20 20 20 20 21 21 22 22 21 21 23 24 25 26 26 24 28 34 38 36 33 30 29 29 30 31 29 27 25 25 26 27 27 26 26 26 26 27 26 25 24 23 22 21 20 19 18 16 14 12 11 9 8 7 6 5 4 4 4 5 6 7 8 9 10 11 13 14 14 15 17
10 10 10 11 11 11 11 11 12 12 13 13 13 14 15 15 17 17 18 18 19 20 21 21 21 21 23 25 25 27 26 22 22 28 32 32 31 31 31 31 32 31 28 26 25 26 27 28 28 27 27 27 28 28 27 25 24 23 23 21 20 20 18 16 14 13 12 10 9 8 7 6 5 5 6 6 6 7 8 9 10 11 12 14 15 15 16
10 10 10 10 11 11 12 12 12 12 13 13 13 13 13 14 15 16 16 17 18 19 20 21 20 21 23 24 25 26 26 22 20 24 28 29 29 30 31 32 32 32 29 27 27 28 29 30 29 29 29 28 28 28 27 26 24 24 23 22 21 20 18 16 15 14 12 11 10 9 8 7 7 7 7 7 7 8 9 9 10 10 11 13 14 15 15
11 11 11 11 11 11 12 12 12 12 13 13 14 14 14 14 15 15 16 16 16 18 19 21 22 23 24 24 24 24 23 20 20 23 25 26 26 27 28 30 33 34 32 30 29 29 29 30 30 30 29 28 28 28 27 26 25 24 23 22 21 20 18 16 15 14 13 13 12 10 9 8 8 8 8 8 8 8 9 10 10 11 11 12 13 15 16
12 12 11 11 10 10 11 12 12 12 12 13 14 14 14 15 15 15 16 16 16 18 19 21 23 24 25 25 24 23 21 19 20 21 22 22 23 24 25 27 32 35 34 31 30 30 29 30 30 30 29 29 29 28 27 27 25 25 24 23 21 20 18 17 16 15 14 14 13 12 11 10 9 9 9 9 9 9 10 10 11 11 11 12 12 13 14
13 13 13 12 11 11 11 11 12 12 12 12 12 12 13 14 14 15 16 16 16 18 20 22 24 25 25 25 24 23 22 21 21 22 22 22 23 25 26 26 28 30 31 30 31 31 31 30 30 30 30 29 29 28 28 27 26 25 24 22 21 19 18 18 17 16 15 15 14 13 12 11 11 10 11 11 11 11 11 11 11 11 12 12 12 13 14
14 14 14 13 13 12 12 12 12 12 11 11 11 12 12 13 14 14 15 15 16 18 21 23 25 25 25 25 25 24 24 25 24 24 25 25 24 24 25 25 24 26 28 29 31 32 31 30 30 31 30 29 29 29 28 27 26 25 23 22 21 20 19 18 18 17 16 16 15 14 13 13 13 12 12 12 12 12 12 12 12 12 12 12 13 13 13
14 15 15 15 14 13 12 12 13 12 11 11 11 12 13 13 14 15 15 15 17 19 21 23 25 25 25 25 25 24 26 27 26 25 25 24 23 23 24 24 24 26 28 29 31 31 31 30 30 30 30 30 30 29 29 27 26 24 23 22 21 21 20 19 19 18 18 17 16 16 15 15 15 15 14 14 13 13 13 13 13 13 13 13 14 14 14
11 12 13 13 13 12 11 12 12 12 12 12 12 12 13 14 15 15 16 17 19 20 22 23 25 25 25 25 24 23 24 24 23 22 21 20 21 25 27 27 27 28 29 29 30 31 30 30 31 31 30 30 30 29 29 27 26 24 23 23 22 21 21 20 20 19 19 18 18 17 17 17 17 17 17 16 15 14 14 14 14 14 14 14 15 15 15
6 7 8 8 8 9 10 11 11 12 12 12 13 13 13 14 15 16 17 18 20 21 22 25 26 26 26 25 23 22 21 20 19 19 18 17 20 26 29 29 29 29 29 29 30 30 30 31 31 31 31 31 30 29 28 27 26 25 24 23 22 22 22 21 21 20 20 20 19 19 18 19 20 20 19 18 17 16 16 16 16 15 15 15 15 16 16
3 3 4 5 5 7 8 9 10 11 12 13 13 13 13 14 15 16 17 19 21 21 23 25 27 26 25 24 22 21 20 20 20 19 18 18 20 26 28 28 28 28 28 29 31 31 31 32 32 31 31 31 30 29 28 27 26 25 24 23 23 23 22 22 22 21 21 21 20 20 20 21 21 22 21 21 19 18 18 18 18 17 17 17 17 17 17
2 2 2 3 4 5 6 6 8 9 11 13 14 13 13 14 15 16 17 19 20 22 23 25 26 26 25 24 23 22 21 21 20 20 19 20 23 26 27 27 27 27 27 28 30 31 32 32 31 31 31 30 29 28 27 26 26 25 24 24 23 23 23 23 22 22 22 22 22 22 22 22 22 23 23 23 22 21 20 20 19 19 19 19 19 19 19
3 3 2 2 3 4 4 4 6 9 11 13 13 13 13 14 14 15 17 17 18 20 22 24 25 26 25 24 24 23 22 22 21 20 21 24 25 25 24 23 23 23 24 26 29 31 31 30 30 31 30 30 29 28 27 26 26 25 25 25 24 24 23 23 23 23 23 23 23 23 23 23 24 24 24 24 24 24 23 22 22 21 21 21 21 21 21
3 3 3 3 3 3 3 4 7 9 11 12 12 12 12 14 14 15 16 16 16 17 19 21 23 25 24 24 23 22 22 22 21 22 24 26 25 22 21 21 22 24 25 27 29 30 30 29 30 30 30 29 28 28 27 27 26 26 25 25 25 24 24 24 24 24 24 24 24 24 24 24 24 25 25 26 26 25 25 24 24 23 23 23 23 23 22
3 3 3 3 3 4 4 5 7 9 10 11 11 12 12 13 13 14 15 16 16 17 18 20 21 22 22 22 22 21 21 21 22 24 25 25 23 22 22 23 24 26 27 27 29 30 30 30 31 30 29 29 29 29 28 27 27 27 26 26 25 25 25 25 24 25 25 25 25 25 25 25 25 26 26 26 26 26 26 26 26 25 25 25 25 25 24
3 3 3 3 4 4 4 5 7 8 9 9 10 11 12 13 13 14 15 16 16 17 18 20 22 22 21 21 22 22 23 23 24 25 25 24 22 21 22 23 25 26 27 27 28 29 31 32 32 31 30 30 30 29 29 28 27 27 27 27 27 27 26 26 25 25 25 26 26 27 26 26 26 26 26 26 27 27 27 27 27 27 27 26 26 26 26
3 3 3 3 4 4 5 6 7 8 8 9 10 11 12 13 13 14 15 16 17 17 18 20 22 23 23 23 24 24 25 26 26 26 25 24 23 22 22 24 25 27 27 27 27 29 30 32 32 32 31 31 31 30 29 28 28 29 29 29 29 28 28 27 27 26 26 26 27 27 27 27 26 26 26 27 27 27 28 28 28 28 27 27 27 27 27
5 5 4 4 4 5 5 6 7 8 8 9 9 10 12 13 14 14 15 16 17 18 19 20 22 23 24 25 27 28 28 28 28 27 26 26 26 26 26 27 29 29 28 27 28 28 30 32 32 32 31 31 31 31 30 30 30 30 30 30 30 29 29 29 28 28 27 27 27 27 27 27 27 26 26 27 27 28 29 29 29 29 28 28 28 28 28
5 6 6 6 6 6 6 6 7 8 9 9 10 11 12 13 14 15 15 16 17 18 19 20 21 22 23 24 26 28 28 28 28 27 27 27 28 27 27 29 30 29 28 27 28 28 30 32 32 32 32 32 32 32 32 31 31 31 30 30 30 30 30 30 29 29 28 28 28 28 28 28 28 28 28 28 28 29 29 29 29 29 29 29 29 29 29
6 6 6 6 7 7 7 8 9 9 10 11 11 12 12 13 14 15 16 17 18 18 19 20 21 22 22 23 24 26 27 27 27 27 27 27 26 26 27 29 30 28 27 26 27 29 30 32 32 32 32 33 33 33 32 32 31 31 31 31 31 31 31 30 30 30 29 29 29 29 29 29 29 29 30 30 30 30 30 29 29 30 30 30 30 30 30
6 6 7 7 7 7 8 8 9 10 11 11 12 12 13 13 14 15 16 17 18 19 19 20 21 22 22 23 24 26 27 28 29 29 29 28 27 27 29 30 30 29 28 28 28 29 30 31 32 32 33 33 33 33 32 32 31 31 31 30 30 31 31 30 30 30 29 29 29 29 29 30 31 31 31 32 32 31 30 30 29 29 30 31 31 32 32
7 7 8 8 8 8 8 8 9 9 10 11 11 12 13 14 14 15 16 17 18 19 20 20 21 22 22 23 24 25 26 27 28 28 28 28 29 30 31 32 31 31 30 29 29 29 30 31 32 32 32 32 32 32 32 32 31 31 31 31 31 31 31 31 31 30 30 30 30 30 30 31 31 32 32 33 32 32 31 30 29 29 30 31 32 32 32
8 8 8 8 9 8 8 8 8 9 10 10 11 12 13 14 15 15 16 17 18 18 19 20 21 22 23 23 24 25 25 26 26 26 26 27 28 29 31 31 31 30 31 30 30 30 30 31 32 32 32 32 32 32 32 32 32 32 32 32 33 33 33 32 31 31 30 31 31 31 31 31 32 33 33 33 33 33 32 31 30 30 30 31 31 32 32
8 8 8 8 9 9 9 10 10 10 10 10 11 11 12 13 14 16 16 17 18 18 19 20 20 21 22 23 24 25 26 26 26 26 27 27 28 29 30 31 30 30 30 30 30 30 30 31 32 32 32 32 32 32 32 33 33 33 33 33 34 34 33 33 32 32 32 32 32 33 33 33 33 33 33 34 34 34 33 32 31 31 31 32 32 32 32
8 8 7 7 7 7 8 9 11 11 11 11 11 11 11 12 14 15 16 17 18 18 19 20 20 21 21 23 24 25 25 25 25 26 27 28 28 28 29 30 30 30 30 29 29 29 30 31 32 32 32 32 32 33 33 33 34 34 34 34 34 34 34 34 34 34 34 34 34 34 34 34 34 33 34 34 35 34 33 33 32 32 31 31 31 31 31
9 9 8 8 7 7 7 8 9 10 12 12 12 12 12 13 13 14 16 17 18 18 19 19 20 21 22 23 24 25 25 25 25 25 25 26 26 27 28 29 30 30 30 30 30 30 30 31 31 31 32 33 33 34 35 35 35 36 36 36 36 36 36 36 36 36 36 35 35 36 36 35 35 34 34 34 35 35 35 34 32 30 29 29 29 30 31
Wind_Direction
183 157 179 192 197 204 208 211 213 213 212 212 215 218 218 217 220 220 206 204 217 227 229 227 223 227 238 241 239 241 243 242 237 231 224 219 216 215 217 221 226 230 232 232 232 238 246 250 249 246 244 241 235 232 231 228 228 230 230 230 229 232 237 242 252 262 270 277 283 287 288 290 295 303 311 318 322 325 329 334 337 336 335 334 335 336 336
216 188 179 179 186 205 213 215 217 217 216 216 216 218 219 219 222 225 220 215 219 224 227 228 226 229 236 239 238 238 239 240 238 231 227 223 219 217 218 221 226 230 230 230 234 242 247 246 243 241 237 230 225 223 222 221 222 224 224 225 228 233 240 246 254 260 266 272 275 277 280 290 301 312 319 321 325 332 336 339 338 337 336 336 337 337 337
217 204 194 186 187 204 215 218 221 219 217 218 218 219 219 219 223 228 229 230 231 231 232 236 239 238 235 234 236 235 236 239 239 235 231 226 221 218 218 219 224 227 228 232 239 244 245 241 237 232 226 221 218 215 214 215 216 216 218 223 229 237 244 250 253 256 259 259 257 261 275 292 303 311 313 321 334 340 341 340 337 336 336 336 337 337 337
215 208 213 222 226 241 237 228 225 219 218 218 216 218 219 219 221 226 227 228 230 234 236 241 246 242 233 231 232 233 234 235 236 236 236 231 226 222 219 219 222 226 230 236 241 243 240 234 227 221 217 215 212 209 208 209 209 211 216 223 231 239 244 246 248 248 242 233 230 242 257 251 212 221 307 336 344 343 339 337 336 336 336 336 336 336 338
214 208 216 230 236 250 243 231 227 224 223 222 219 221 224 223 221 223 226 227 227 231 236 239 236 228 226 234 237 236 239 241 239 239 237 234 229 224 222 221 222 226 231 235 236 235 231 223 215 211 210 208 207 205 203 203 205 209 215 223 230 233 235 235 233 225 214 206 209 209 185 175 188 280 335 345 342 336 335 334 335 335 334 335 336 337 338
211 205 214 229 234 236 228 220 221 222 224 225 225 227 227 223 221 224 228 228 226 230 233 229 223 224 235 247 246 241 242 245 247 247 242 236 229 222 220 219 221 226 228 226 225 224 219 213 208 206 206 204 202 201 200 201 205 210 215 219 221 219 218 216 209 200 194 191 190 179 172 184 232 330 338 337 333 331 333 334 333 334 334 335 338 338 339
208 197 203 220 231 228 219 215 218 222 225 226 226 228 226 222 222 225 228 228 226 231 232 224 224 235 246 247 242 240 238 237 243 250 249 243 235 224 216 216 219 221 219 217 219 218 214 208 203 203 203 201 199 197 199 201 205 208 209 207 205 203 201 196 190 186 185 183 178 174 178 203 293 324 328 330 330 332 333 333 333 334 336 337 339 340 341
203 196 204 217 232 227 226 231 229 227 227 224 224 226 225 224 223 224 227 228 227 229 228 225 228 236 240 237 233 232 231 230 234 242 246 244 236 225 217 216 216 214 212 216 219 216 210 204 199 198 198 196 197 197 199 202 203 203 200 196 194 192 188 184 181 180 180 178 174 176 189 226 289 314 326 329 331 333 334 334 335 337 338 340 341 343 345
208 209 213 221 239 247 238 237 235 233 231 226 223 226 228 225 221 222 227 230 231 231 230 230 231 230 228 229 228 225 225 227 229 231 234 235 229 219 213 210 208 206 210 216 214 209 204 199 195 195 194 194 197 199 200 201 198 194 192 188 186 184 180 177 177 178 178 176 175 186 208 250 298 320 330 332 334 336 335 336 338 339 341 343 344 346 347
213 222 224 221 230 243 238 233 230 229 229 226 221 225 232 227 220 219 225 231 234 234 232 232 230 225 223 226 228 228 228 229 228 226 220 209 205 207 203 198 198 203 209 211 205 200 198 195 193 193 194 195 197 199 199 197 192 188 185 182 180 178 176 175 176 176 176 177 183 201 229 281 318 331 337 338 339 338 338 340 341 343 345 347 348 350 350
209 219 229 226 227 230 223 219 218 216 219 221 216 221 233 230 221 218 222 227 232 231 230 230 228 226 228 230 234 236 235 233 230 226 214 200 197 200 197 196 201 207 209 206 198 193 193 193 192 193 194 195 197 198 196 191 186 183 180 178 175 173 173 174 174 175 176 183 195 213 255 314 336 342 342 342 341 340 342 344 345 348 351 352 352 353 353
209 216 228 233 230 221 212 213 219 220 216 208 203 212 223 220 218 218 219 222 227 227 226 227 227 229 233 235 238 242 240 235 233 229 220 211 204 197 191 195 204 210 209 203 196 192 191 192 194 195 195 195 196 195 191 186 182 178 175 172 170 171 173 173 172 174 179 188 205 227 293 336 346 347 345 344 346 347 349 350 353 355 356 356 356 356 356
216 216 226 233 230 222 219 220 221 221 212 205 211 217 206 196 205 211 210 213 217 219 220 223 225 228 230 231 236 242 240 237 237 235 227 215 204 194 192 198 204 207 203 196 192 192 193 193 195 195 195 196 196 193 187 182 179 174 170 168 168 170 172 171 172 176 181 188 204 245 339 350 351 349 348 350 353 354 356 359 1 1 359 359 358 358 358
221 220 225 235 233 223 218 215 213 212 207 208 217 212 191 183 195 197 199 205 211 213 217 222 226 228 230 232 237 241 240 238 241 239 228 211 199 195 197 201 205 206 200 193 192 193 194 194 194 193 195 198 196 191 185 180 176 171 167 166 168 170 170 171 173 176 180 184 185 34 1 356 354 352 354 359 1 3 6 6 6 5 3 2 1 0 359
217 219 222 231 235 221 215 215 219 220 218 221 224 216 211 215 214 204 201 204 210 213 217 221 224 226 230 233 237 241 242 240 239 236 227 216 209 205 201 201 204 204 200 196 195 195 195 195 194 195 198 199 195 189 184 178 173 168 165 165 166 168 169 171 173 175 176 171 146 74 15 2 360 360 5 9 10 11 13 12 10 8 6 4 4 2 0
214 218 220 225 230 222 217 222 229 233 234 235 233 228 227 225 217 210 207 206 211 217 220 223 226 227 229 231 232 237 239 236 230 227 225 222 216 208 202 203 205 203 201 200 199 197 196 197 198 200 201 198 192 187 182 177 171 167 165 165 165 166 169 171 172 172 166 151 129 93 40 17 12 15 17 17 17 16 16 14 12 10 8 6 5 3 2
224 224 224 228 230 229 229 233 236 235 235 235 232 232 235 230 222 224 225 222 224 226 229 232 233 233 233 233 234 236 237 233 227 222 220 218 211 205 205 206 205 204 205 204 202 199 197 198 201 202 200 194 190 185 180 174 169 166 165 163 163 166 169 169 168 165 157 144 131 115 89 53 35 30 25 22 21 19 17 15 13 10 8 7 5 4 3
232 228 228 231 235 237 239 241 238 232 228 228 228 231 237 238 236 238 238 237 238 239 242 245 243 241 237 235 237 239 234 228 223 217 213 209 204 203 207 205 203 205 205 202 201 200 197 197 200 199 195 190 186 182 177 171 167 166 164 163 164 167 168 167 165 159 154 149 141 132 112 76 50 37 30 25 22 20 17 15 12 9 8 7 5 5 4
233 231 233 233 235 238 238 237 236 231 229 230 229 231 236 239 240 241 243 246 251 253 254 254 251 247 241 236 238 238 229 222 218 211 208 205 202 204 206 205 205 208 205 199 198 199 198 198 199 196 192 186 181 178 175 170 167 166 164 163 167 169 168 167 165 160 158 156 150 140 119 82 58 41 32 25 20 19 17 14 11 9 8 7 5 5 5
231 233 237 234 230 230 231 232 233 232 231 233 233 234 236 238 239 243 247 251 255 258 258 256 253 250 244 238 236 233 224 219 213 207 205 205 205 205 204 204 208 211 206 201 201 201 200 200 198 194 189 185 181 177 173 170 167 165 165 167 170 170 169 169 168 165 164 163 158 149 126 82 56 39 30 23 18 17 15 12 10 10 8 7 6 5 5
235 237 240 238 233 231 230 229 229 229 229 230 232 234 236 238 242 247 251 253 255 255 254 252 249 245 242 237 233 227 219 214 209 205 205 206 206 205 204 205 208 208 205 203 203 201 199 198 196 192 188 185 181 176 170 168 167 166 168 172 173 173 173 172 172 173 172 169 167 161 135 76 49 35 24 17 15 13 11 10 9 9 8 7 6 6 6
239 239 240 238 235 235 233 230 230 233 234 234 235 237 239 242 245 248 249 251 251 249 248 245 241 236 235 235 232 224 216 211 207 204 203 204 205 205 204 204 203 201 201 203 201 198 196 194 191 188 185 183 181 175 169 168 169 170 173 176 177 177 178 177 178 180 178 176 177 179 171 63 33 25 15 10 9 7 7 7 7 7 7 6 6 7 7
232 237 242 241 237 238 239 237 237 239 240 241 242 243 244 245 246 245 246 246 244 242 240 237 235 233 231 231 230 223 213 206 203 203 205 205 204 202 200 199 198 198 199 198 197 196 195 190 184 182 181 181 181 179 174 171 172 174 177 179 181 181 182 183 184 186 186 185 189 199 212 274 7 10 5 3 2 360 1 4 5 6 6 5 5 7 7
230 236 243 242 238 239 242 243 242 243 245 246 248 248 247 246 244 242 241 240 237 233 231 230 233 232 228 223 221 217 209 203 201 201 204 205 203 200 199 198 198 198 196 194 195 197 194 189 184 182 180 180 182 183 178 174 174 178 180 183 185 185 186 188 189 191 194 195 200 214 229 267 326 348 355 354 352 351 355 0 3 5 5 5 5 6 6
231 233 233 231 231 233 236 237 239 241 243 244 244 244 243 240 238 237 236 234 232 230 228 227 229 230 226 218 210 207 207 205 202 199 199 201 201 198 198 200 199 198 195 194 196 197 195 191 187 182 179 179 183 183 179 176 177 181 184 186 188 188 189 192 193 197 201 204 211 224 238 264 298 326 341 342 342 343 348 356 1 2 3 4 5 5 6
226 229 228 226 226 226 226 228 231 232 234 236 236 236 235 235 234 234 232 230 228 228 228 225 223 225 225 215 203 200 203 208 206 200 196 197 199 197 197 200 199 196 195 197 198 197 193 189 183 177 177 181 184 182 180 179 181 184 187 190 192 192 194 195 197 202 207 211 219 230 241 258 281 305 321 328 334 338 342 349 355 358 1 3 4 4 5
230 231 230 227 227 225 224 225 225 225 227 229 229 229 229 230 231 231 230 228 226 225 226 224 220 219 219 213 205 201 203 209 212 205 197 193 194 196 198 200 198 195 195 196 196 192 187 182 178 176 180 184 184 182 183 183 184 187 191 193 195 197 197 197 200 207 212 216 223 233 243 256 274 290 304 317 328 333 337 343 348 350 354 359 2 2 2
236 237 236 234 231 229 226 224 223 223 223 222 221 221 222 225 227 227 226 227 227 225 224 223 218 213 213 213 209 203 201 207 214 211 202 195 193 196 199 199 196 193 193 192 190 186 182 179 178 179 182 184 184 185 186 186 187 190 193 195 198 201 199 198 204 211 215 219 226 234 244 256 269 283 296 309 320 326 332 336 340 344 347 352 356 358 359
244 244 245 244 240 235 231 227 225 224 222 220 220 220 219 221 224 225 223 223 226 227 225 224 219 210 206 209 210 206 203 203 205 205 204 201 198 199 201 199 195 192 192 191 188 184 181 181 181 182 184 186 186 186 188 189 190 192 194 196 200 203 200 200 207 213 217 222 228 236 245 256 268 279 290 300 309 317 325 328 331 336 340 344 348 351 353
254 255 256 256 253 249 243 237 233 230 227 225 223 222 222 222 224 225 224 223 223 225 225 224 220 211 202 201 204 204 202 199 196 198 204 205 203 203 205 201 196 194 193 189 185 182 183 185 185 184 185 187 187 188 190 192 193 194 196 198 202 203 203 205 210 215 219 225 230 236 245 253 264 274 282 290 298 306 315 320 323 328 332 337 341 344 346
257 257 256 258 260 260 256 249 241 237 233 230 226 223 224 224 224 224 224 222 221 224 224 221 217 209 199 194 196 198 197 192 189 193 199 202 201 203 205 204 203 202 197 188 181 181 185 188 188 185 186 188 189 191 193 195 195 196 198 200 202 204 206 209 213 216 221 226 231 237 244 251 258 267 275 282 289 297 305 311 315 320 324 329 333 337 339
257 258 260 263 266 265 260 252 243 238 234 229 224 221 220 221 220 218 218 218 218 221 219 214 209 204 198 193 193 193 189 185 183 186 191 192 193 197 201 205 207 208 203 194 185 182 185 190 190 188 188 190 192 195 197 198 198 199 200 202 204 208 210 213 216 219 223 228 233 237 243 249 254 260 267 275 282 288 295 303 308 312 317 320 323 327 331
255 258 261 264 262 257 251 243 236 233 230 223 218 216 215 213 210 207 207 209 213 215 213 208 204 199 195 192 191 188 184 181 180 184 188 189 190 195 200 199 198 200 201 197 189 184 186 190 192 191 191 192 195 198 200 200 200 201 201 203 207 210 213 216 220 222 226 231 235 239 244 249 253 258 262 268 275 282 288 294 300 305 309 312 314 317 321
250 253 256 259 258 254 247 237 228 223 221 218 216 215 213 209 205 202 200 202 207 211 209 203 198 193 190 189 190 188 185 184 183 187 190 191 191 193 191 186 185 190 193 191 186 184 187 192 194 194 193 193 196 200 202 202 202 202 204 206 209 213 216 220 223 226 230 233 237 241 246 250 253 257 260 264 269 276 282 288 293 297 302 306 308 311 314
246 250 255 260 262 258 248 237 228 220 216 214 214 214 214 211 206 203 200 198 201 204 201 194 190 188 188 189 189 188 188 188 188 193 198 199 195 188 181 178 183 188 188 186 185 186 190 194 196 196 195 195 197 201 203 203 203 204 206 209 212 215 218 222 226 230 233 236 240 243 247 251 255 257 260 262 266 271 277 282 287 291 296 300 303 306 310
244 252 257 259 257 249 242 236 230 224 220 216 212 211 212 211 206 203 201 198 196 196 193 189 186 186 189 192 191 189 190 195 198 200 205 208 200 189 182 182 186 189 188 187 188 190 193 197 199 198 197 198 200 202 204 205 206 207 209 212 215 217 221 225 229 233 236 240 243 246 249 252 256 258 260 262 265 268 273 278 283 287 292 295 298 302 306
246 249 251 249 243 239 239 237 232 226 222 217 209 205 207 209 207 203 201 197 194 191 190 188 187 187 189 191 190 188 191 198 201 203 206 206 199 191 187 188 190 191 192 193 193 193 196 199 199 199 200 200 201 204 206 207 208 210 212 214 217 220 224 228 232 236 239 242 245 248 251 254 256 259 262 264 265 267 270 274 279 284 287 291 294 298 302
241 220 218 234 241 239 238 236 229 220 213 209 204 201 203 206 205 203 201 197 194 191 189 188 188 189 190 191 191 191 193 197 201 203 202 198 193 191 192 193 193 194 197 199 198 197 199 200 200 201 202 203 203 205 207 209 211 214 216 218 221 224 227 231 234 238 242 245 247 250 252 255 257 259 262 265 266 267 269 272 275 279 283 287 291 294 297
236 222 203 211 233 237 233 225 215 207 203 201 200 201 202 201 200 201 202 200 196 192 190 189 189 190 192 194 197 198 197 199 202 203 197 191 189 191 193 194 196 200 203 204 203 203 203 203 202 204 205 205 206 208 210 212 215 217 219 222 225 227 230 233 237 240 243 246 249 251 253 256 258 260 262 265 267 268 270 272 273 276 280 283 286 290 293
230 225 209 202 211 220 214 199 195 198 199 198 196 198 200 200 199 200 202 202 199 195 191 191 191 191 193 197 200 201 201 202 203 201 195 189 188 191 194 197 201 204 205 206 206 207 207 206 206 208 208 209 210 212 214 215 218 221 224 226 229 231 234 236 239 243 246 248 250 253 255 257 258 260 262 265 267 269 271 273 274 276 278 280 283 286 288
217 215 206 196 194 202 202 191 188 194 200 201 198 197 198 199 201 202 201 202 201 197 194 193 193 195 197 200 201 202 205 205 203 199 196 194 195 198 201 205 208 209 208 208 208 207 207 208 210 211 211 212 214 216 217 219 222 226 228 231 233 235 238 240 242 245 248 251 253 255 257 258 260 261 263 265 268 270 272 273 275 276 277 279 281 283 285
213 209 207 200 195 199 200 192 189 195 204 207 207 205 202 200 200 200 199 200 202 201 199 197 196 196 199 201 201 201 204 205 203 202 203 206 209 211 213 214 215 214 214 213 211 210 209 209 211 213 214 215 217 219 220 222 226 229 232 235 237 239 241 244 246 248 251 254 256 258 259 260 261 262 264 266 269 270 271 272 274 275 277 279 280 282 283
221 212 209 209 206 206 204 200 200 204 209 211 214 215 213 207 203 200 200 200 201 202 202 201 198 198 199 201 202 203 205 206 207 209 211 214 217 218 219 219 219 218 218 217 216 214 213 213 214 215 216 217 220 222 223 225 228 230 233 236 239 242 245 247 249 251 254 256 258 259 260 260 261 262 264 267 269 271 272 273 273 274 276 278 279 280 281
238 234 227 219 215 214 213 211 212 214 217 218 219 221 220 218 213 208 205 205 204 203 203 204 204 204 204 203 204 206 208 210 212 212 213 215 217 219 219 219 218 217 217 218 219 218 216 216 217 217 218 220 222 224 226 228 230 232 234 238 241 244 246 248 250 253 255 257 259 259 259 258 259 260 262 265 268 270 272 272 273 273 274 275 277 278 279
243 244 243 239 235 231 225 221 221 222 223 225 226 225 225 224 222 217 213 212 211 210 210 211 213 215 215 213 212 211 213 216 218 220 220 221 222 222 222 222 221 219 219 221 222 220 218 218 219 219 220 222 224 226 228 230 231 233 236 239 242 244 247 250 252 255 256 258 258 258 258 257 258 259 260 263 266 268 269 270 271 271 272 273 274 275 276
254 248 246 245 244 240 236 232 232 231 231 231 231 230 229 228 227 224 221 218 217 217 218 219 221 222 224 225 223 220 218 219 221 223 224 225 226 225 224 224 223 222 224 227 227 224 221 220 220 221 222 224 226 228 230 232 233 235 238 241 243 247 250 252 255 257 258 259 259 258 258 258 259 259 261 263 265 266 266 267 268 270 272 272 273 273 273
280 265 255 248 245 244 244 244 244 244 243 241 239 237 235 233 232 230 228 224 222 222 222 223 223 223 224 225 225 224 223 223 223 223 223 223 222 222 221 220 221 222 225 228 229 228 225 224 223 224 226 228 230 232 233 235 236 239 241 244 247 249 252 254 257 258 259 260 260 260 259 259 260 261 262 264 265 265 265 265 267 268 270 272 273 273 274
307 293 278 266 256 250 248 248 250 254 254 250 244 241 239 236 235 234 233 231 229 227 225 223 222 221 221 221 222 224 225 226 227 227 226 223 221 220 221 220 221 224 227 228 228 228 227 227 228 229 230 232 234 236 238 239 241 243 245 247 250 252 254 255 257 259 260 261 262 262 261 262 262 263 264 265 265 265 265 265 267 269 271 272 274 275 276
319 307 292 278 266 258 252 248 250 255 257 253 249 245 240 236 235 235 235 234 233 232 230 228 225 222 221 222 222 223 226 228 228 228 229 227 225 226 227 227 227 228 230 231 230 228 227 227 229 231 233 235 237 239 241 243 244 246 247 249 251 253 255 256 258 260 261 261 262 263 263 263 264 266 266 267 266 266 266 266 268 270 272 273 274 275 277
315 311 299 286 274 264 256 251 249 251 254 255 254 250 245 241 239 238 237 236 236 235 234 234 232 228 226 225 225 226 228 229 229 228 229 228 227 227 229 230 230 231 232 233 231 229 228 229 230 232 234 237 240 242 244 246 248 249 250 252 253 255 257 259 260 261 261 262 263 264 265 265 266 267 268 267 267 267 267 267 268 269 270 272 274 277 278
298 303 304 301 293 281 271 263 259 257 257 258 258 255 251 247 245 243 241 240 239 238 237 237 237 234 230 228 227 227 227 228 228 228 229 229 228 228 229 229 229 230 231 231 231 230 229 230 232 234 237 240 242 245 247 248 250 251 253 253 254 256 257 258 259 260 260 261 263 264 265 266 267 267 267 267 267 267 266 265 266 268 271 274 277 279 280
281 287 291 293 293 288 282 275 269 265 264 263 263 261 257 253 249 246 244 243 243 242 241 240 240 238 235 232 229 227 225 225 226 227 229 230 230 229 229 230 229 229 230 231 231 231 231 233 235 236 238 241 243 245 247 248 250 252 253 254 255 255 256 257 258 259 261 262 263 263 264 265 265 265 266 266 267 266 265 266 270 274 276 277 278 281 285